Location: Bohy
(49.9380°N, 13.5753°E)
Time: 06:01:57
(UTC+00:00)

Spot 2 Rocket - Pass Details

Date: 19 May 2025
Orbit: 753 x 766 km, 98.3° (Epoch: 14 June)

Event Time Altitude Azimuth Distance (km) Brightness Sun altitude
Exits shadow 20:17:41 10° 173° (S) 2,265 5.4 -11.2°
Maximum altitude 20:22:39 70° 257° (WSW) 804 3.7 -11.7°
Drops below altitude 10° 20:27:42 10° 342° (NNW) 2,296 7.2 -12.2°
Sets 20:30:02 0° 344° (NNW) 3,228 8.2 -12.4°
